Weather in Santa Maria

Cape Verde     16°35′42″N   22°54′58″W
temp.,
°C
wind,
m/s
gust,
m/s
humid.,
%
clouds,
%
prec.,
mm/h
press.,
hPa
HPBL,
m
4 december, sat
sat423:00+23ne1011706 0.0 1015787
02:00+23ne910723 0.0 1014770
05:00+23ne9107219 0.0 1014730
08:00+23ne101172100 0.0 1015724
11:00+23ne101072100 0.0 1016708
14:00+23ne9107397 0.0 1014732
17:00+23ne9974100 0.0 1014750
20:00+23ne9973100 0.0 1016725
5 december, sun
sun523:00+23ne9974100 0.0 1017708
02:00+23nne91074100 0.0 1015626
05:00+23ne91073100 0.0 1015605
08:00+23ne9107392 0.0 1016657
11:00+23ne897392 0.0 1017678
14:00+23ne887393 0.0 1014655
17:00+23nne89745 0.0 1015706
20:00+23nne91075100 0.0 1016663
6 december, mon
mon623:00+23nne9976100 0.0 1016627
02:00+23nne9974100 0.0 1014586
05:00+23nne8972100 0.0 1014572
08:00+24ne8107129 0.0 1015519
11:00+24ne8107289 0.0 1015508
14:00+24ne787294 0.0 1013545
17:00+24ne897598 0.0 1013563
20:00+24ne91077100 0.0 1015566
7 december, tue
tue723:00+24ene89745 0.0 1015604
02:00+24ene89725 0.0 1014530
05:00+24ne89695 0.0 1013504
08:00+24ne8107249 0.0 1015499
11:00+24ne810745 0.0 1016509
14:00+24ne897555 0.0 1014524
17:00+24ne81078100 0.0 1014509
20:00+24ne91076100 0.0 1015537
8 december, wed
wed823:00+24ne91072100 0.0 1016475
02:00+23ne91171100 0.0 1015554
05:00+24ne91271100 0.0 1014569
08:00+24ne91372100 0.0 1016570
11:00+24ne91475100 0.0 1016595
14:00+24ne91375100 0.0 1014608
17:00+24ne10127695 0.0 1014609
20:00+23ne11137695 0.0 1016614